Погода в Тёплой

Россия / Пермский край     57°20′03″N   56°47′46″E
темп.,
°C
ветер,
м/с
пор.,
м/с
влажн.,
%
обл.,
%
осадки,
мм/ч
давл.,
гПа
погр.,
м
6 марта, сб
сб623:00−13з479247 0.0 1005120
02:00−14зюз34950 0.0 100570
05:00−15юз459516 0.0 100788
08:00−13юз499599 0.1 1007334
11:00−10з5886100 0.1 1008776
14:00−10з5781100 0.0 1009855
17:00−10з4684100 0.1 1010744
20:00−16з339282 0.0 101125
7 марта, вс
вс723:00−18зюз339640 0.0 101220
02:00−18ююз239875 0.0 101120
05:00−17юз339686 0.1 101252
08:00−18ююз349795 0.1 101173
11:00−15юз349293 0.1 1011297
14:00−12зюз2381100 0.1 1009699
17:00−11зюз2383100 0.2 1008575
20:00−16юз2292100 0.0 100820
8 марта, пн
пн823:00−18ююз339689 0.1 100926
02:00−20ю349940 0.0 100750
05:00−20ююв4710061 0.0 1006132
08:00−15ююв51096100 0.2 1003357
11:00−12ю61192100 0.9 1000674
14:00−7ю81289100 0.4 998989
17:00−5юз81376100 0.6 9981121
20:00−9ююз5128830 0.0 999284
9 марта, вт
вт923:00−10ю489266 0.0 999137
02:00−11ю4896100 0.3 999170
05:00−10ююз499495 0.6 999221
08:00−13юз4695100 0.0 1000110
11:00−10юз469093 0.1 1002423
14:00−7юз4586100 0.1 1004744
17:00−8юз4688100 0.3 1005671
20:00−11ююз489396 0.1 1006192
10 марта, ср
ср1023:00−13ююз369697 0.2 1007118
02:00−14юз2496100 0.3 100894
05:00−16сз2397100 0.8 100996
08:00−19ссз3698100 0.2 1009194
11:00−19ссз4595100 0.4 1010318
14:00−17ссз4592100 0.1 1011429
17:00−17ссз4688100 0.1 1012495
20:00−22ссз349577 0.0 101441